• In Moldova, Republic
  • List of Countries
  • For 7 days
  • Water Temperature
  • Satellite Maps
  • Weather Map
  • Weather Widgets
  • user-avatar
    Login

    Hourly Weather Wiktoria

    Today, 22 January, Sunday

    Time Temperature Precipitation Wind Pressure Humidity
    00:00 +17°C° 0 mm 2 mps 749 mmHg 63%
    01:00 +16°C° 0 mm 2 mps 749 mmHg 67%
    02:00 +15°C° 0 mm 1 mps 749 mmHg 70%
    03:00 +15°C° 0 mm 1 mps 749 mmHg 73%
    04:00 +13°C° 0 mm 1 mps 749 mmHg 79%
    05:00 +14°C° 0 mm 1 mps 749 mmHg 74%
    06:00 +15°C° 0 mm 1 mps 749 mmHg 69%
    07:00 +18°C° 0 mm 1 mps 749 mmHg 64%
    08:00 +21°C° 0 mm 1 mps 749 mmHg 55%
    09:00 +24°C° 0 mm 1 mps 749 mmHg 46%
    10:00 +27°C° 0 mm 1 mps 749 mmHg 38%
    11:00 +29°C° 0 mm 1 mps 748 mmHg 33%
    12:00 +31°C° 0 mm 1 mps 748 mmHg 27%
    13:00 +33°C° 0 mm 1 mps 747 mmHg 22%
    14:00 +34°C° 0 mm 1 mps 747 mmHg 20%
    15:00 +35°C° 0 mm 1 mps 746 mmHg 18%
    16:00 +36°C° 0 mm 1 mps 746 mmHg 17%
    17:00 +34°C° 0 mm 1 mps 746 mmHg 22%
    18:00 +31°C° 0 mm 1 mps 746 mmHg 27%
    19:00 +29°C° 0 mm 1 mps 745 mmHg 32%
    20:00 +27°C° 0 mm 1 mps 745 mmHg 33%
    21:00 +26°C° 0 mm 1 mps 745 mmHg 35%
    22:00 +24°C° 0 mm 1 mps 745 mmHg 37%
    23:00 +24°C° 0 mm 1 mps 745 mmHg 37%

    Tomorrow, 23 January, Monday

    Time Temperature Precipitation Wind Pressure Humidity
    00:00 +24°C° 0 mm 1 mps 745 mmHg 38%
    01:00 +23°C° 0 mm 1 mps 745 mmHg 38%
    02:00 +23°C° 0 mm 1 mps 744 mmHg 39%
    03:00 +23°C° 0 mm 1 mps 744 mmHg 41%
    04:00 +22°C° 0 mm 1 mps 744 mmHg 42%
    05:00 +23°C° 0 mm 1 mps 744 mmHg 42%
    06:00 +24°C° 0 mm 1 mps 744 mmHg 42%
    07:00 +25°C° 0 mm 2 mps 744 mmHg 42%
    08:00 +27°C° 0 mm 2 mps 744 mmHg 39%
    09:00 +30°C° 0 mm 2 mps 744 mmHg 35%
    10:00 +34°C° 0 mm 2 mps 744 mmHg 31%
    11:00 +36°C° 0 mm 2 mps 743 mmHg 27%
    12:00 +37°C° 0 mm 2 mps 743 mmHg 23%
    13:00 +39°C° 0 mm 2 mps 742 mmHg 19%
    14:00 +40°C° 0 mm 2 mps 742 mmHg 17%
    15:00 +41°C° 0 mm 2 mps 741 mmHg 15%
    16:00 +42°C° 0 mm 2 mps 740 mmHg 14%
    17:00 +40°C° 0 mm 2 mps 740 mmHg 17%
    18:00 +37°C° 0 mm 1 mps 740 mmHg 20%
    19:00 +35°C° 0 mm 1 mps 740 mmHg 23%
    20:00 +34°C° 0 mm 1 mps 740 mmHg 23%
    21:00 +33°C° 0 mm 1 mps 741 mmHg 23%
    22:00 +32°C° 0 mm 1 mps 741 mmHg 23%
    23:00 +31°C° 0 mm 1 mps 741 mmHg 30%

    Day after tomorrow, 24 January, Tuesday

    Time Temperature Precipitation Wind Pressure Humidity
    00:00 +30°C° 0 mm 1 mps 741 mmHg 36%
    01:00 +29°C° 0 mm 1 mps 742 mmHg 43%
    02:00 +28°C° 0.3 mm 1 mps 742 mmHg 51%
    03:00 +27°C° 0.3 mm 1 mps 743 mmHg 60%
    04:00 +26°C° 0.3 mm 1 mps 743 mmHg 69%
    05:00 +25°C° 0.1 mm 2 mps 744 mmHg 72%
    06:00 +24°C° 0.1 mm 2 mps 745 mmHg 76%
    07:00 +24°C° 0.1 mm 2 mps 746 mmHg 79%
    08:00 +24°C° 0 mm 2 mps 746 mmHg 70%
    09:00 +25°C° 0 mm 2 mps 747 mmHg 61%
    10:00 +26°C° 0 mm 3 mps 747 mmHg 52%
    11:00 +27°C° 0 mm 3 mps 748 mmHg 45%
    12:00 +28°C° 0 mm 3 mps 748 mmHg 39%
    13:00 +29°C° 0 mm 3 mps 748 mmHg 32%
    14:00 +29°C° 0 mm 3 mps 748 mmHg 31%
    15:00 +29°C° 0 mm 3 mps 748 mmHg 29%
    16:00 +30°C° 0 mm 3 mps 748 mmHg 28%
    17:00 +28°C° 0 mm 3 mps 748 mmHg 31%
    18:00 +26°C° 0 mm 3 mps 749 mmHg 35%
    19:00 +24°C° 0 mm 3 mps 750 mmHg 39%
    20:00 +22°C° 0 mm 3 mps 750 mmHg 42%
    21:00 +20°C° 0 mm 3 mps 751 mmHg 46%
    22:00 +18°C° 0 mm 3 mps 752 mmHg 50%
    23:00 +17°C° 0 mm 3 mps 752 mmHg 52%

    25 January, Wednesday

    Time Temperature Precipitation Wind Pressure Humidity
    00:00 +16°C° 0 mm 2 mps 752 mmHg 53%
    01:00 +16°C° 0 mm 2 mps 752 mmHg 55%
    02:00 +15°C° 0 mm 2 mps 752 mmHg 58%
    03:00 +14°C° 0 mm 2 mps 752 mmHg 62%
    04:00 +14°C° 0 mm 1 mps 752 mmHg 65%
    05:00 +14°C° 0 mm 1 mps 752 mmHg 64%
    06:00 +15°C° 0 mm 1 mps 752 mmHg 63%
    07:00 +15°C° 0 mm 1 mps 753 mmHg 62%
    08:00 +19°C° 0 mm 1 mps 753 mmHg 53%
    09:00 +23°C° 0 mm 1 mps 752 mmHg 43%
    10:00 +26°C° 0 mm 1 mps 752 mmHg 34%
    11:00 +28°C° 0 mm 1 mps 752 mmHg 28%
    12:00 +30°C° 0 mm 1 mps 751 mmHg 22%
    13:00 +31°C° 0 mm 1 mps 751 mmHg 17%
    14:00 +32°C° 0 mm 2 mps 750 mmHg 16%
    15:00 +32°C° 0 mm 2 mps 750 mmHg 16%
    16:00 +32°C° 0 mm 2 mps 749 mmHg 15%
    17:00 +30°C° 0 mm 2 mps 749 mmHg 20%
    18:00 +29°C° 0 mm 2 mps 750 mmHg 24%
    19:00 +27°C° 0 mm 2 mps 750 mmHg 28%
    20:00 +25°C° 0 mm 3 mps 750 mmHg 34%
    21:00 +22°C° 0 mm 3 mps 751 mmHg 40%
    22:00 +20°C° 0 mm 3 mps 751 mmHg 46%
    23:00 +19°C° 0 mm 3 mps 751 mmHg 49%

    26 January, Thursday

    Time Temperature Precipitation Wind Pressure Humidity
    00:00 +18°C° 0 mm 2 mps 751 mmHg 52%
    01:00 +17°C° 0 mm 2 mps 751 mmHg 55%
    02:00 +16°C° 0 mm 2 mps 751 mmHg 58%
    03:00 +16°C° 0 mm 2 mps 750 mmHg 61%
    04:00 +15°C° 0 mm 2 mps 750 mmHg 63%
    05:00 +15°C° 0 mm 2 mps 751 mmHg 63%
    06:00 +16°C° 0 mm 2 mps 751 mmHg 62%
    07:00 +16°C° 0 mm 2 mps 751 mmHg 62%
    08:00 +19°C° 0 mm 2 mps 751 mmHg 53%
    09:00 +23°C° 0 mm 2 mps 751 mmHg 45%
    10:00 +25°C° 0 mm 2 mps 751 mmHg 37%
    11:00 +28°C° 0 mm 2 mps 751 mmHg 32%
    12:00 +30°C° 0 mm 2 mps 750 mmHg 27%
    13:00 +32°C° 0 mm 2 mps 749 mmHg 22%
    14:00 +33°C° 0 mm 3 mps 749 mmHg 21%
    15:00 +34°C° 0 mm 3 mps 749 mmHg 19%
    16:00 +34°C° 0 mm 3 mps 748 mmHg 18%
    17:00 +31°C° 0 mm 3 mps 748 mmHg 22%
    18:00 +29°C° 0 mm 3 mps 748 mmHg 26%
    19:00 +28°C° 0 mm 3 mps 749 mmHg 30%
    20:00 +26°C° 0 mm 3 mps 749 mmHg 36%
    21:00 +24°C° 0 mm 2 mps 750 mmHg 43%
    22:00 +21°C° 0 mm 2 mps 750 mmHg 49%
    23:00 +20°C° 0 mm 2 mps 750 mmHg 54%

    27 January, Friday

    Time Temperature Precipitation Wind Pressure Humidity
    00:00 +19°C° 0 mm 2 mps 750 mmHg 59%
    01:00 +17°C° 0 mm 2 mps 749 mmHg 64%
    02:00 +17°C° 0 mm 2 mps 749 mmHg 68%
    03:00 +16°C° 0 mm 1 mps 749 mmHg 72%
    04:00 +15°C° 0 mm 1 mps 749 mmHg 76%
    05:00 +16°C° 0 mm 1 mps 749 mmHg 74%
    06:00 +16°C° 0 mm 1 mps 749 mmHg 71%
    07:00 +18°C° 0 mm 1 mps 750 mmHg 68%
    08:00 +22°C° 0 mm 1 mps 750 mmHg 57%
    09:00 +25°C° 0 mm 1 mps 749 mmHg 45%
    10:00 +27°C° 0 mm 0 mps 749 mmHg 34%
    11:00 +31°C° 0 mm 1 mps 749 mmHg 28%
    12:00 +33°C° 0 mm 1 mps 748 mmHg 21%
    13:00 +35°C° 0 mm 1 mps 747 mmHg 15%
    14:00 +35°C° 0 mm 1 mps 747 mmHg 14%
    15:00 +35°C° 0 mm 1 mps 746 mmHg 13%
    16:00 +37°C° 0 mm 2 mps 746 mmHg 11%
    17:00 +33°C° 0 mm 1 mps 746 mmHg 16%
    18:00 +31°C° 0 mm 1 mps 746 mmHg 21%
    19:00 +29°C° 0 mm 1 mps 746 mmHg 26%
    20:00 +27°C° 0 mm 1 mps 746 mmHg 29%
    21:00 +25°C° 0 mm 1 mps 747 mmHg 32%
    22:00 +23°C° 0 mm 1 mps 747 mmHg 35%
    23:00 +22°C° 0 mm 1 mps 747 mmHg 39%
    Show more